Regional Weather Roundup
Issued by NWS Jackson, KY

Home | Current Version | Previous Version | Text Only | Print | Product List | Glossary Off
Versions: 1 2 3 4 5 6 7 8 9 10 11 12 13 14 15 16 17 18 19 20 21 22 23 24 25 26 27 28 29 30 31 32 33 34 35 36 37 38 39 40 41 42 43 44 45 46 47 48 49 50

189
ASUS43 KJKL 261410
RWRJKL

EAST KENTUCKY HOURLY WEATHER ROUNDUP
NATIONAL WEATHER SERVICE JACKSON KY
1000 AM EDT SUN MAR 26 2017

NOTE: "FAIR" INDICATES FEW OR NO CLOUDS BELOW 12,000 FEET WITH
NO SIGNIFICANT WEATHER AND/OR OBSTRUCTIONS TO VISIBILITY.

* THESE REPORTS ARE NOT UNDER NWS QUALITY CONTROL AND MAY NOT
  REPORT WEATHER SUCH AS PRECIPITATION AND FOG.

KYZ079-080-083-085-087-088-110-112-115-119-120-261500
...EASTERN KENTUCKY...

CITY           SKY/WX    TMP DP  RH WIND       PRES   REMARKS
JACKSON        CLOUDY    57  53  86 VRB5      30.06S
LONDON         LGT RAIN  59  54  83 S3        30.04F
SOMERSET*      LGT RAIN  55  55 100 S3        30.05R
MONTICELLO*    CLOUDY    60  56  86 VRB7      30.04S
WILLIAMSBURG*  CLOUDY    61  57  88 S8        30.05S
MIDDLESBORO*   CLOUDY    61  56  84 S9        30.08S
HARLAN APT*    CLOUDY    61  54  77 E5        30.08F
PIKE CO APT*   LGT RAIN  56  56  97 SE7       30.09S
BIG SANDY APT* LGT RAIN  57  55  92 S7        30.08S
MOREHEAD APT*  LGT RAIN  55  54  94 S7        30.06F
ASHLAND*       CLOUDY    46  46 100 E3        30.05R
$$

KYZ035-036-041-042-044-050-067-078-099-261500
...CENTRAL KENTUCKY...

CITY           SKY/WX    TMP DP  RH WIND       PRES   REMARKS
MT STERLING*   RAIN      55  55 100 S7        30.05S
FLEMING/MASON* DRIZZLE   56  55  98 S10       30.04F
DANVILLE*      CLOUDY    59  55  88 S9        30.02S
LEXINGTON      CLOUDY    58  55  90 SE9       30.01F
FRANKFORT      LGT RAIN  58  55  90 S8        29.99R
LOUISVILLE     CLOUDY    60  56  86 S9        29.97S
LEBANON*       CLOUDY    59  57  94 S16G25    30.00S
GLASGOW*       CLOUDY   N/A N/A N/A SW6       30.01R
BOWLING GREEN  CLOUDY    61  56  83 S9        30.00R
$$

KYZ091>093-OHZ055-061-077-WVZ005-015-034-035-042-261500
...SOUTHERN OHIO/WEST VIRGINIA...

CITY           SKY/WX    TMP DP  RH WIND       PRES   REMARKS
COVINGTON      CLOUDY    58  56  93 S10       29.99S
COLUMBUS       LGT RAIN  59  52  77 S6        30.02R
DAYTON         CLOUDY    58  54  86 S14G22    29.99S
WILMINGTON     LGT RAIN  57  55  93 S10       30.00F
HUNTINGTON     LGT RAIN  57  52  83 SW6       30.07R
CHARLESTON     CLOUDY    66  47  50 S5        30.06S
PINEVILLE*     CLOUDY    56  48  75 MISG      30.16S
BECKLEY        CLOUDY    56  47  71 S10       30.14S
LOGAN CO APT*  CLOUDY    63  46  55 VRB6G14   30.09S
$$

VAZ002-007-008-TNZ017-027-036-066-071-261500
...SOUTHWEST VIRGINIA/EAST TENNESSEE...

CITY           SKY/WX    TMP DP  RH WIND       PRES   REMARKS
WISE*          CLOUDY    54  54 100 S8        30.14S
JONESVILLE*      N/A     59  55  88 CALM      30.12S
ABINGDON*      RAIN      59  55  86 W3        30.15R
BRISTOL        LGT RAIN  57  55  93 E5        30.13S
MORRISTOWN*    SUNNY     61  57  88 S6        30.09S
SEVIERVILLE*   MOSUNNY   61  55  82 E3        30.08S
KNOXVILLE      PTSUNNY   63  57  81 S3        30.07S
LAFOLLETTE*    CLOUDY    61  55  82 S10G20    30.09F
OAK RIDGE      CLOUDY    62  57  83 VRB6      30.09R
CROSSVILLE     CLOUDY    58  53  84 S10G20    30.06S
NASHVILLE      CLOUDY    61  57  87 S9        30.02R
$$

...KEY TO REMARKS...
VSB - VISIBILITY IN MILES
WCI - WIND CHILL INDEX
HX  - HEAT INDEX

$$




USA.gov is the U.S. government's official web portal to all federal, state and local government web resources and services.